Weather History for Cartersville, GA

Change the Weather History Date:

Thursday, September 13, 2012

  Actual Average Record
Temperature  
Mean Temperature 70 °F 73 °F  
Max Temperature 82 °F 84 °F 91 °F (2005)
Min Temperature 60 °F 61 °F 54 °F (2010)
Degree Days  
Heating Degree Days 0 0  
Month to date heating degree days 0  
Since 1 July heating degree days 0  
Cooling Degree Days 6 8  
Month to date cooling degree days 124  
Year to date cooling degree days 1389  
Growing Degree Days 20 (Base 50)    
Moisture  
Dew Point 56 °F    
Average Humidity 67    
Maximum Humidity 93    
Minimum Humidity 35    
Precipitation  
Precipitation 0.00 in 0.15 in 1.96 in (2006)
Month to date precipitation 1.38  
Year to date precipitation 35.97  
Sea Level Pressure  
Sea Level Pressure 30.25 in    
Wind  
Wind Speed 2 mph (ENE)    
Max Wind Speed 10 mph    
Max Gust Speed -    
Visibility 10 miles    
Events      
T = Trace of Precipitation, MM = Missing Value Source: NWS Daily Summary

Daily Weather History Graph

Daily Weather History Graph

Search for Another Location

Airport:

Trip Planner

Search our weather history database for the weather conditions in past years. The results will help you decide how hot, cold, wet, or windy it might be!

Date:

Astronomy

Sep. 13, 2012 Rise Set
Actual Time 7:21 AM EDT 7:48 PM EDT
Civil Twilight 6:56 AM EDT 8:13 PM EDT
Nautical Twilight 6:26 AM EDT 8:42 PM EDT
Astronomical Twilight 5:56 AM EDT 9:12 PM EDT
Moon 4:45 AM EDT (9/13) 6:06 PM EDT (9/13)
Length of Visible Light 13h 16m
Length of Day
12h 26m
Waning Crescent, 7% of the Moon is Illuminated
Sep 13
Waning Crescent
Sep 15
New
Sep 22
First Quarter
Sep 29
Full
Oct 8
Last Quarter

Hourly Weather History & Observations

Time (EDT) Temp. Heat Index Dew Point Humidity Pressure Visibility Wind Dir Wind Speed Gust Speed Precip Events Conditions
12:53 AM 60.1 °F - 57.0 °F 90% 30.25 in 10.0 mi Calm Calm - N/A   Clear
1:53 AM 63.0 °F - 57.9 °F 84% 30.25 in 10.0 mi Calm Calm - N/A   Clear
2:53 AM 62.1 °F - 59.0 °F 90% 30.24 in 10.0 mi Calm Calm - N/A   Clear
3:53 AM 61.0 °F - 57.9 °F 90% 30.24 in 10.0 mi Calm Calm - N/A   Clear
4:53 AM 61.0 °F - 59.0 °F 93% 30.24 in 10.0 mi Calm Calm - N/A   Clear
5:53 AM 61.0 °F - 57.9 °F 90% 30.26 in 10.0 mi Calm Calm - N/A   Clear
6:53 AM 60.1 °F - 57.9 °F 93% 30.28 in 10.0 mi Calm Calm - N/A   Overcast
7:53 AM 61.0 °F - 57.9 °F 90% 30.30 in 10.0 mi Calm Calm - N/A   Partly Cloudy
8:53 AM 64.9 °F - 60.1 °F 84% 30.31 in 10.0 mi Calm Calm - N/A   Clear
9:53 AM 71.1 °F - 59.0 °F 66% 30.31 in 10.0 mi Variable 3.5 mph - N/A   Clear
10:53 AM 73.9 °F - 55.9 °F 53% 30.32 in 10.0 mi East 5.8 mph - N/A   Clear
11:53 AM 77.0 °F - 55.0 °F 47% 30.31 in 10.0 mi NE 9.2 mph - N/A   Clear
12:53 PM 78.1 °F - 54.0 °F 43% 30.28 in 10.0 mi ENE 9.2 mph - N/A   Clear
1:53 PM 79.0 °F - 53.1 °F 40% 30.25 in 10.0 mi NE 10.4 mph - N/A   Clear
2:53 PM 81.0 °F - 51.1 °F 35% 30.23 in 10.0 mi NNE 6.9 mph - N/A   Partly Cloudy
3:53 PM 79.0 °F - 50.0 °F 36% 30.22 in 10.0 mi East 3.5 mph - N/A   Clear
4:53 PM 79.0 °F - 52.0 °F 39% 30.20 in 10.0 mi NE 8.1 mph - N/A   Clear
5:53 PM 80.1 °F 79.9 °F 53.1 °F 39% 30.19 in 10.0 mi ENE 5.8 mph - N/A   Partly Cloudy
6:53 PM 77.0 °F - 54.0 °F 45% 30.19 in 10.0 mi Calm Calm - N/A   Partly Cloudy
7:53 PM 75.9 °F - 55.9 °F 50% 30.21 in 10.0 mi Calm Calm - N/A   Overcast
8:53 PM 66.0 °F - 57.0 °F 73% 30.21 in 10.0 mi Calm Calm - N/A   Clear
9:53 PM 66.0 °F - 57.9 °F 75% 30.22 in 10.0 mi SE 3.5 mph - N/A   Clear
10:53 PM 68.0 °F - 59.0 °F 73% 30.23 in 10.0 mi Calm Calm - N/A   Clear
11:53 PM 62.1 °F - 57.9 °F 86% 30.24 in 10.0 mi Calm Calm - N/A   Clear